#timestamp,LO_Frequency,Hit,StdDev 
1597942815.5,286046998.1,N
1597942835.3,286046998.1,N
1597942855.2,286047000.7,N
1597942875.0,286046998.6,N
1597942875.9,286046998.6,N
1597942895.8,286047001.1,N
1597942915.6,286046998.4,N
1597942935.4,286046998.1,N
1597942955.3,286046999.0,N
1597942975.1,286046998.5,N
1597942995.8,286046998.8,N
1597943015.7,286046998.8,N
1597943035.5,286046998.4,N
1597943055.3,286046998.4,N
1597943075.2,286047001.1,N
1597943095.0,286046998.6,N
1597943095.9,286046998.6,N
1597943115.8,286046998.2,N
1597943135.6,286046998.5,N
1597943155.4,286047001.1,N
1597943175.3,286046998.2,N
1597943195.1,286046998.5,N
1597943215.9,286046998.5,N
1597943235.7,286046998.3,N
1597943255.5,286047000.7,N
1597943275.4,286047000.7,N
1597943295.2,286047001.0,N
1597943315.0,286047000.6,N
1597943315.9,286047000.6,N
1597943335.8,286047000.5,N
1597943355.6,286047000.5,N
1597943375.5,286047000.4,N
1597943395.3,286047000.6,N
1597943415.1,286047001.2,N
1597943435.9,286047001.2,N
1597943455.7,286047000.9,N
1597943475.5,286047001.2,N
1597943495.4,286047000.8,N
1597943515.2,286047001.2,N
1597943535.1,286047000.3,N
1597943536.0,286047000.3,N
1597943555.8,286047000.6,N
1597943575.6,286047000.9,N
1597943595.5,286047000.6,N
1597943615.3,286047001.2,N
1597943635.1,286047001.1,N
1597943655.9,286047000.7,N
1597943675.7,286047000.8,N
1597943695.6,286047000.5,N
1597943715.4,286047000.7,N
1597943735.2,286047000.7,N
1597943755.1,286047000.7,N
1597943756.0,286047000.7,N
1597943775.8,286047000.3,N
1597943795.7,286047000.3,N
1597943815.5,286047000.4,N
1597943835.3,286047000.4,N
1597943855.2,286047001.0,Y
1597943875.0,286046998.5,P
1597943875.9,286046998.5,N
1597943895.7,286046998.5,N
1597943915.6,286046998.2,N
1597943935.4,286046998.2,N
1597943955.3,286046998.1,N
1597943975.1,286047000.8,N
1597943976.0,286047000.8,N
1597943995.8,286047000.8,N
1597944015.7,286047000.5,N
1597944035.5,286047000.5,N
1597944055.3,286047000.8,N
1597944075.2,286047000.5,N
1597944095.0,286046999.9,N
1597944095.9,286046999.9,N
1597944115.8,286047000.9,N
1597944135.6,286047000.6,N
1597944155.4,286047000.5,N
1597944175.3,286047001.0,N
1597944195.1,286047000.9,N
1597944215.8,286047000.9,N
1597944235.7,286047000.3,N
1597944255.5,286047000.1,N
1597944275.4,286047000.1,N
1597944295.2,286046999.9,N
1597944315.0,286047000.1,N
1597944315.9,286047000.1,N
1597944335.8,286047000.1,N
1597944355.6,286047000.2,N
1597944375.4,286046999.8,N
1597944395.3,286046999.8,N
1597944415.1,286047002.8,Y
1597944435.9,286047002.8,P
1597944455.7,286047002.7,N
1597944475.5,286047002.2,N
1597944495.4,286047002.0,N
1597944515.2,286047002.2,N
1597944535.0,286047002.5,N
1597944536.0,286047002.5,N
1597944555.8,286047002.1,N
1597944575.6,286047002.0,N
1597944595.5,286047002.6,Y
1597944615.3,286047000.5,P
1597944635.1,286047000.4,N
1597944655.9,286046999.9,N
1597944675.7,286047001.0,N
1597944695.6,286047000.3,N
1597944715.4,286047000.0,N
1597944735.2,286047000.6,N
1597944755.1,286047000.5,N
1597944756.0,286047000.5,N
1597944775.8,286047000.7,N
1597944795.6,286047000.0,N
1597944815.5,286047000.3,N
1597944835.3,286047001.0,N
1597944855.1,286047000.5,N
1597944875.9,286047000.0,N
1597944895.7,286047000.3,N
1597944915.6,286046999.7,N
1597944935.4,286047000.2,N
1597944955.2,286046999.9,N
1597944975.1,286047000.1,N
1597944976.0,286047000.1,N
1597944995.8,286047000.1,N
1597945015.7,286046999.8,N
1597945035.5,286047000.1,N
1597945055.3,286047002.6,Y
1597945075.2,286046999.8,P
1597945095.9,286046999.8,N
1597945115.7,286047002.6,P
1597945135.6,286047002.8,N
1597945155.4,286047002.5,N
1597945175.3,286047002.7,N
1597945195.1,286047002.7,N
1597945196.0,286047002.7,N
1597945215.8,286047002.8,N
1597945235.7,286047002.4,N
1597945255.5,286047002.4,N
1597945275.3,286046999.7,N
1597945295.2,286047002.4,N
1597945315.0,286047002.7,N
1597945315.9,286047002.7,N
1597945335.8,286047002.3,N
1597945355.6,286047002.4,N
1597945375.4,286047002.4,N
1597945395.3,286047002.2,N
1597945415.1,286047002.0,N
1597945435.8,286047002.1,N
1597945455.7,286047002.0,N
1597945475.5,286047001.6,N
1597945495.4,286047001.9,N
1597945515.2,286047001.6,N
1597945535.0,286047001.9,N
1597945535.9,286047001.9,N
1597945555.8,286047002.2,N
1597945575.6,286047002.0,N
1597945595.4,286047001.9,N
1597945615.3,286047002.5,N
1597945635.1,286047001.8,N
1597945655.9,286047001.8,Y
1597945675.7,286047000.9,P
1597945695.6,286047000.6,N
1597945715.4,286047000.7,N
1597945735.2,286047000.5,N
1597945755.1,286047000.4,N
1597945756.0,286047000.4,N
1597945775.8,286047001.0,N
1597945795.6,286047000.7,N
1597945815.5,286046998.1,Y
1597945835.3,286047000.8,P
1597945855.2,286046998.3,P
1597945875.9,286047001.0,N
1597945895.7,286046998.5,N
1597945915.6,286046998.6,N
1597945935.4,286047000.8,N
1597945955.2,286046998.6,N
1597945975.1,286046998.2,N
1597945976.0,286046998.2,N
1597945995.8,286047001.2,N
1597946015.7,286047001.1,N
1597946035.5,286047001.0,N
1597946055.3,286047000.8,N
1597946075.2,286047000.9,N
1597946095.0,286047000.5,N
1597946095.9,286047000.5,N
1597946115.7,286047000.0,N
1597946135.6,286046999.9,N
1597946155.4,286047000.2,N
1597946175.3,286047000.1,N
1597946195.1,286046999.7,N
1597946196.0,286046999.7,N
1597946215.8,286047000.0,N
1597946235.7,286047002.3,N
1597946255.5,286047002.1,N
1597946275.3,286047002.6,N
1597946295.2,286047002.0,N
1597946315.0,286047002.4,N
1597946315.9,286047002.4,N
1597946335.8,286047002.6,N
1597946355.6,286047001.5,N
1597946375.4,286047001.9,N
1597946395.3,286047001.9,N
